This demonstration page uses our WeatherBlox Daily Observations layout. Learn more.

41.86663, -103.66717

Hourly Observations for June 27, 2019

Temp ( °F °C ) Dew Point ( °F °C ) Humidity (%) Winds ( mph kmh ) Pressure ( in mb ) Visibility ( mi km ) Precip ( " mm )
12:53 am 00:53 Clear 61 16.1 58 14.4 90 90 Calm 29.85 1011 10 16.0934 0 0
1:53 am 01:53 Clear 58 14.4 58 14.4 100 100 NW 6 9 29.85 1011 10 16.0934 0 0
2:53 am 02:53 Clear 57 13.9 57 13.9 100 100 WNW 7 11 29.84 1011 10 16.0934 0 0
3:53 am 03:53 Clear 55 13 N/A N/A WNW 5 7 29.85 1011 10 16.0934 0 0
4:53 am 04:53 Clear 54 12 N/A N/A N 3 6 29.88 1012 10 16.0934 0 0
5:53 am 05:53 Sunny 57 14 N/A N/A VRB 3 6 29.91 1013 10 16.0934 0 0
6:53 am 06:53 Sunny 61 16 N/A N/A W 5 7 29.97 1015 10 16.0934 0 0
7:53 am 07:53 Sunny 67 19.4 62 16.7 84 84 E 7 11 29.94 1014 10 16.0934 0 0
8:53 am 08:53 Sunny 69 20.6 66 18.9 90 90 SSE 6 9 29.94 1014 10 16.0934 0 0
9:53 am 09:53 Sunny 73 22.8 70 21.1 90 90 S 7 11 29.94 1014 10 16.0934 0 0
10:53 am 10:53 Sunny 75 23.9 71 21.7 88 88 S 5 7 29.94 1014 10 16.0934 0 0
11:53 am 11:53 Sunny 80 26.7 73 22.8 79 79 Calm 29.92 1013 10 16.0934 0 0
12:53 pm 12:53 Sunny 85 29.4 76 24.4 75 75 Calm 29.9 1013 10 16.0934 0 0
1:53 pm 13:53 Sunny 87 30.6 81 27.2 82 82 NNE 3 6 29.89 1012 10 16.0934 0 0
2:53 pm 14:53 Sunny 90 32.2 83 28.3 80 80 ENE 7 11 29.88 1012 10 16.0934 0 0
3:53 pm 15:53 Sunny 92 33.3 86 30 83 83 SE 5 7 29.87 1011 10 16.0934 0 0
4:53 pm 16:53 Sunny 91 32.8 83 28.3 77 77 E 8 13 29.86 1011 10 16.0934 0 0
5:53 pm 17:53 Sunny 91 32.8 84 28.9 80 80 ENE 9 15 29.85 1011 10 16.0934 0 0
6:53 pm 18:53 Sunny 88 31.1 80 26.7 77 77 E 9 15 29.85 1011 10 16.0934 0 0
7:53 pm 19:53 Sunny 81 27.2 72 22.2 74 74 ENE 7 11 29.85 1011 10 16.0934 0 0
8:53 pm 20:53 Clear 74 23.3 64 17.8 71 71 E 7 11 29.87 1012 10 16.0934 0 0
9:53 pm 21:53 Clear 71 21.7 62 16.7 73 73 E 7 11 29.9 1012 10 16.0934 0 0
10:53 pm 22:53 Clear 69 20.6 62 16.7 78 78 ENE 7 11 29.9 1013 10 16.0934 0 0
11:53 pm 23:53 Clear 69 20.6 63 17.2 81 81 E 7 11 29.89 1012 10 16.0934 0 0

Powered by AerisWeather